Vorticity
nan nan nan nan nan nan nan nan nan nan nan nan nan nan nan nan nan nan nan nan nan nan nan nan nan nan nan nan nan nan nan nan nan nan nan nan nan nan nan nan nan nan nan nan nan nan nan nan nan nan nan nan nan nan nan nan nan nan nan nan nan nan nan nan nan nan nan nan nan
nan 10 11 10 10 9 8 8 8 9 9 9 8 8 9 9 8 8 8 8 9 8 8 7 5 5 4 5 8 8 8 7 7 8 8 8 7 7 8 8 7 7 8 8 10 11 8 8 13 13 11 8 7 7 8 7 6 6 5 9 13 12 12 11 9 9 11 14 nan
nan 9 9 10 11 11 10 8 8 9 10 9 9 9 9 9 9 8 7 7 8 9 9 7 5 5 5 7 8 8 7 6 7 9 9 7 6 6 8 7 6 8 9 9 9 9 6 9 13 13 10 6 5 7 8 6 7 8 8 13 15 12 11 9 8 11 14 12 nan
nan 8 8 9 11 12 11 10 8 8 9 9 8 9 9 9 8 8 7 7 8 8 8 7 7 7 6 6 6 7 7 6 7 9 9 7 6 6 7 7 8 9 9 8 7 7 7 11 15 12 8 5 8 9 8 5 6 10 11 13 12 10 9 8 9 11 11 8 nan
nan 8 9 8 8 9 9 9 9 9 9 9 9 9 9 8 8 8 8 8 7 7 6 7 9 7 6 5 6 7 8 8 9 9 7 6 7 7 6 7 9 9 9 8 7 8 8 14 16 11 8 9 10 7 4 3 7 10 11 10 9 9 9 8 9 9 8 6 nan
nan 8 9 9 8 8 8 8 8 9 9 9 10 10 10 9 8 8 8 8 7 6 7 8 8 7 6 6 8 9 9 9 9 7 7 7 7 6 6 8 9 9 9 7 7 9 11 15 16 11 9 9 8 5 3 6 10 9 9 8 9 9 8 7 8 7 5 1 nan
nan 8 8 8 8 9 9 9 9 9 9 8 8 9 10 9 8 8 9 9 8 8 8 8 6 6 6 7 8 8 8 8 7 7 8 8 6 6 7 8 8 8 8 8 9 10 11 15 14 10 9 9 8 5 5 7 7 6 6 7 9 8 7 9 9 6 2 -1 nan
nan 7 7 7 8 8 9 10 10 10 10 8 7 7 8 8 8 9 9 10 8 8 9 7 4 5 7 8 8 7 7 8 8 8 8 7 6 7 8 8 8 8 9 10 9 9 12 15 13 9 9 9 7 4 3 4 5 6 6 9 9 8 7 8 5 3 1 3 nan
nan 6 6 7 7 7 7 8 10 10 10 9 7 7 7 7 8 9 10 9 7 8 8 6 4 6 7 8 8 8 8 8 8 8 7 7 7 7 9 9 8 9 9 9 9 9 13 15 11 8 7 6 4 2 1 4 7 8 10 13 9 5 4 3 2 2 3 7 nan
nan 7 7 6 6 6 7 7 8 8 8 8 7 7 7 7 8 9 9 8 7 7 7 6 6 7 8 9 9 9 9 8 8 7 7 7 7 8 9 8 7 8 9 9 9 11 14 13 8 5 4 3 2 3 5 7 8 9 11 11 5 2 3 3 4 6 8 9 nan
nan 8 8 7 7 7 7 7 7 7 7 7 7 7 7 7 7 8 8 7 7 7 7 7 7 8 9 10 9 8 8 8 7 6 7 7 7 8 8 7 7 7 8 9 11 12 13 9 4 3 4 4 7 9 9 7 8 9 9 5 3 4 6 6 7 10 11 8 nan
nan 8 8 8 7 8 8 8 7 7 7 7 8 8 8 7 7 8 8 8 8 9 8 7 8 9 10 9 7 7 7 7 7 7 7 7 7 8 8 8 8 8 9 10 12 12 9 5 3 3 4 8 11 9 6 5 8 9 9 6 6 7 7 7 9 10 8 6 nan
nan 8 8 8 8 9 9 9 8 7 7 7 8 8 8 7 7 8 8 9 10 10 8 7 9 9 9 7 7 7 7 7 7 7 7 7 8 8 8 9 8 9 10 12 11 9 6 4 4 5 7 9 9 5 3 6 9 9 9 8 8 7 6 7 8 8 5 6 nan
nan 8 8 8 9 10 10 9 8 7 7 7 8 8 9 8 7 8 8 9 9 9 9 9 10 9 7 6 6 6 7 7 7 7 7 7 7 7 8 8 8 9 11 10 8 7 7 6 6 7 8 8 6 5 6 8 9 9 8 8 7 7 7 8 8 8 7 8 nan
nan 7 8 9 10 10 10 10 9 8 7 7 8 9 9 8 7 8 7 8 9 10 9 9 8 7 7 7 7 7 8 8 8 8 8 8 8 8 8 7 8 9 9 7 7 7 8 8 9 9 9 8 8 8 8 9 8 8 8 7 7 8 8 8 8 9 8 9 nan
nan 7 8 9 10 10 10 10 9 8 8 7 8 9 9 9 8 7 7 8 10 9 7 7 8 8 8 8 9 9 10 10 9 9 8 8 7 7 8 7 8 8 7 7 8 8 8 9 10 9 8 9 9 9 9 8 9 8 7 7 8 8 8 8 8 9 9 9 nan
nan 7 8 8 9 9 10 10 10 8 7 7 8 9 9 9 8 7 7 8 9 7 5 7 8 8 8 8 9 10 11 10 9 8 8 7 7 7 8 8 8 7 8 8 8 8 8 8 9 9 9 10 10 9 9 9 9 8 8 8 8 8 8 9 9 9 10 9 nan
nan 7 7 8 8 8 8 9 9 8 8 8 8 8 8 7 7 7 7 7 7 6 6 8 9 8 7 8 9 10 9 8 7 7 6 6 7 7 8 8 8 8 8 9 8 8 8 8 8 9 10 10 10 9 9 9 9 9 9 9 9 9 9 9 10 10 10 9 nan
nan 7 7 7 8 8 8 8 9 8 8 8 8 7 7 7 7 8 8 7 7 7 7 9 9 8 7 8 8 8 8 8 6 6 6 7 8 8 8 8 8 8 9 9 9 8 8 8 8 9 9 9 9 8 8 9 9 9 9 11 11 10 10 10 10 10 9 9 nan
nan 7 7 7 8 8 8 8 8 8 9 8 7 7 7 7 8 8 8 7 7 8 8 9 8 8 7 8 8 8 9 9 7 7 8 8 8 8 8 8 9 9 10 10 9 8 8 8 8 8 9 8 8 9 9 11 10 10 11 12 11 10 9 10 10 10 9 10 nan
nan 7 7 7 8 8 8 8 8 8 8 8 7 7 8 8 8 8 8 8 8 8 9 9 8 8 8 8 8 9 10 9 7 8 9 9 8 9 9 10 10 10 10 10 9 8 8 8 8 8 9 10 9 10 10 11 10 10 11 10 8 7 8 9 10 11 11 11 nan
nan 7 7 7 8 8 8 8 8 8 8 8 8 8 8 8 9 8 9 9 9 9 9 10 9 9 9 8 8 9 9 7 7 8 8 8 9 9 9 10 9 9 10 10 10 9 9 8 8 9 10 10 9 9 10 10 10 10 10 8 7 8 9 11 12 12 12 12 nan
nan 8 8 8 7 8 8 8 8 8 8 8 8 8 8 9 9 9 9 9 9 8 9 11 10 9 9 9 9 9 8 7 7 7 8 8 8 8 9 10 9 10 13 13 10 8 8 9 9 11 12 11 10 10 11 11 11 11 9 9 10 11 11 12 11 11 11 11 nan
nan 8 9 8 7 8 8 8 8 8 8 8 8 8 8 9 9 9 9 9 9 9 10 10 9 9 10 11 10 9 8 7 7 8 8 8 8 9 10 11 12 13 15 12 4 1 3 5 7 9 11 11 11 11 11 11 10 10 9 10 11 12 12 11 11 11 10 11 nan
nan 8 8 7 7 8 8 8 8 8 8 8 7 8 8 9 9 9 9 9 9 9 9 9 10 11 12 12 11 10 10 9 9 9 9 9 9 9 11 12 13 14 13 4 -4 -4 -1 3 5 6 8 10 10 11 11 11 10 10 10 10 11 12 12 11 11 11 11 12 nan
nan 7 7 7 8 8 8 8 8 8 8 8 8 8 8 9 10 9 8 9 9 9 10 12 12 12 12 11 10 9 10 10 9 9 9 8 8 9 11 12 12 12 7 -3 -6 -2 1 4 5 7 9 10 9 11 12 12 10 10 11 12 13 12 11 11 10 10 11 11 nan
nan 7 7 7 8 8 8 8 8 8 8 8 8 8 8 9 9 8 9 9 9 10 13 14 13 13 14 12 9 9 9 9 9 9 9 8 8 9 11 12 11 8 0 -6 -3 2 5 6 7 9 11 11 11 11 11 10 10 12 14 15 14 12 10 9 10 11 11 9 nan
nan 7 8 8 8 8 8 8 8 8 8 8 8 8 8 8 8 9 9 9 10 12 14 14 14 14 13 9 8 7 8 8 10 10 10 8 8 8 10 10 8 3 -3 -4 1 5 6 7 7 8 11 13 17 15 14 12 14 15 16 15 13 12 11 12 12 11 9 9 nan
nan 8 8 8 8 9 8 8 8 8 8 9 8 8 9 9 10 10 10 9 10 12 13 13 12 10 6 4 6 8 9 11 11 10 8 7 8 8 8 7 6 3 0 2 6 6 6 6 7 8 9 15 20 17 15 13 13 13 13 13 10 9 9 10 8 8 8 10 nan
nan 8 8 8 8 8 8 8 8 8 9 9 8 8 9 10 9 10 10 10 11 12 11 8 6 3 3 5 7 9 10 10 10 8 7 7 8 8 7 8 7 6 4 5 6 6 6 6 7 8 9 15 20 19 15 10 9 11 12 9 5 5 6 8 7 8 9 8 nan
nan 8 8 8 8 8 8 8 8 8 9 8 8 9 9 9 9 10 10 11 11 10 8 6 5 5 6 8 8 8 8 8 8 8 7 7 8 7 7 8 9 8 5 4 5 5 6 7 8 9 9 16 22 20 13 9 9 11 10 5 3 5 9 11 11 8 6 6 nan
nan 8 8 8 8 8 8 8 9 9 8 8 9 9 9 9 10 10 10 11 10 9 9 9 8 9 9 9 9 8 8 8 8 7 7 7 7 7 9 10 12 10 5 3 4 5 6 8 9 9 9 16 22 18 14 12 13 12 9 6 6 8 11 10 8 6 6 9 nan
nan 8 8 8 8 8 8 8 8 8 9 9 9 9 9 10 10 10 11 11 10 9 10 9 10 10 10 10 9 9 10 10 8 7 7 7 7 8 10 14 15 9 3 1 4 6 7 9 9 9 8 17 25 21 16 14 15 12 9 8 8 9 9 8 8 7 8 10 nan
nan 8 8 8 8 8 8 8 8 8 9 9 9 9 9 9 9 10 11 10 9 9 9 9 9 10 10 9 9 9 10 9 7 7 8 9 9 9 11 14 10 1 -2 1 6 7 8 9 9 9 11 22 28 21 14 13 13 9 6 6 8 8 9 10 10 10 10 12 nan
nan 8 8 8 8 8 8 8 8 8 9 9 9 9 9 10 10 10 10 9 9 9 9 9 9 9 9 8 9 8 8 7 7 7 8 9 9 9 10 10 4 -1 -0 4 8 8 9 9 8 10 16 27 27 18 12 13 13 9 7 8 9 9 9 11 13 12 12 13 nan
nan 8 8 8 8 8 8 8 9 8 8 9 9 9 9 10 11 11 10 10 10 9 9 9 9 9 8 9 9 9 8 8 8 9 9 9 9 9 10 9 5 3 5 7 8 9 9 8 8 12 21 28 23 14 12 14 13 9 9 10 11 10 12 14 14 13 13 12 nan
nan 8 8 8 8 8 8 8 8 8 8 8 9 9 9 10 11 11 10 10 9 9 9 9 8 9 9 9 9 8 8 8 8 9 9 9 9 9 9 8 7 7 7 8 8 8 8 8 9 14 22 24 16 12 13 14 12 9 10 12 12 12 14 17 16 14 12 9 nan
nan 8 8 8 8 8 8 8 8 8 8 9 9 9 10 11 11 11 10 10 9 8 8 9 8 9 8 9 9 8 8 8 9 9 9 10 10 9 8 9 10 9 8 6 7 8 9 9 10 13 20 20 14 15 15 13 9 9 10 12 12 11 14 16 15 13 10 6 nan
nan 9 9 8 8 8 8 8 8 9 9 9 9 9 10 11 10 9 9 9 8 8 9 8 8 8 8 9 10 9 9 9 10 10 10 10 8 8 8 10 10 9 7 6 7 8 9 9 9 12 19 21 18 17 15 11 8 9 10 12 11 11 14 14 13 11 8 7 nan
nan 9 9 9 9 9 8 8 8 9 9 9 8 9 10 10 9 8 9 9 8 9 10 10 8 8 8 10 10 9 9 10 10 10 10 9 8 9 11 13 11 9 8 8 8 9 9 8 9 12 20 23 18 16 14 10 8 9 10 10 10 11 12 11 11 11 10 12 nan
nan nan nan nan nan nan nan nan nan nan nan nan nan nan nan nan nan nan nan nan nan nan nan nan nan nan nan nan nan nan nan nan nan nan nan nan nan nan nan nan nan nan nan nan nan nan nan nan nan nan nan nan nan nan nan nan nan nan nan nan nan nan nan nan nan nan nan nan nan
CAPE
nan nan nan nan nan nan nan nan nan nan nan nan nan nan nan nan nan nan nan nan nan nan nan nan nan nan nan nan nan nan nan nan nan nan nan nan nan nan nan nan nan nan nan nan nan nan nan nan nan nan nan nan nan nan nan nan nan nan nan nan nan nan nan nan nan nan nan nan nan
nan nan nan nan nan nan nan nan nan nan nan nan nan nan nan nan nan nan nan nan nan nan nan nan nan nan nan nan nan nan nan nan nan nan nan nan nan nan nan nan nan nan nan nan nan nan nan nan nan nan nan nan nan nan nan nan nan nan nan nan nan nan nan nan nan nan nan nan nan
nan nan nan nan nan nan nan nan nan nan nan nan nan nan nan nan nan nan nan nan nan nan nan nan nan nan nan nan nan nan nan nan nan nan nan nan nan nan nan nan nan nan nan nan nan nan nan nan nan nan nan nan nan nan nan nan nan nan nan nan nan nan nan nan nan nan nan nan nan
nan nan nan nan nan nan nan nan nan nan nan nan nan nan nan nan nan nan nan nan nan nan nan nan nan nan nan nan nan nan nan nan nan nan nan nan nan nan nan nan nan nan nan nan nan nan nan nan nan nan nan nan nan nan nan nan nan nan nan nan nan nan nan nan nan nan nan nan nan
nan nan nan nan nan nan nan nan nan nan nan nan nan nan nan nan nan nan nan nan nan nan nan nan nan nan nan nan nan nan nan nan nan nan nan nan nan nan nan nan nan nan nan nan nan nan nan nan nan nan nan nan nan nan nan nan nan nan nan nan nan nan nan nan nan nan nan nan nan
nan nan nan nan nan nan nan nan nan nan nan nan nan nan nan nan nan nan nan nan nan nan nan nan nan nan nan nan nan nan nan nan nan nan nan nan nan nan nan nan nan nan nan nan nan nan nan nan nan nan nan nan nan nan nan nan nan nan nan nan nan nan nan nan nan nan nan nan nan
nan nan nan nan nan nan nan nan nan nan nan nan nan nan nan nan nan nan nan nan nan nan nan nan nan nan nan nan nan nan nan nan nan nan nan nan nan nan nan nan nan nan nan nan nan nan nan nan nan nan nan nan nan nan nan nan nan nan nan nan nan nan nan nan nan nan nan nan nan
nan nan nan nan nan nan nan nan nan nan nan nan nan nan nan nan nan nan nan nan nan nan nan nan nan nan nan nan nan nan nan nan nan nan nan nan nan nan nan nan nan nan nan nan nan nan nan nan nan nan nan nan nan nan nan nan nan nan nan nan nan nan nan nan nan nan nan nan nan
nan nan nan nan nan nan nan nan nan nan nan nan nan nan nan nan nan nan nan nan nan nan nan nan nan nan nan nan nan nan nan nan nan nan nan nan nan nan nan nan nan nan nan nan nan nan nan nan nan nan nan nan nan nan nan nan nan nan nan nan nan nan nan nan nan nan nan nan nan
nan nan nan nan nan nan nan nan nan nan nan nan nan nan nan nan nan nan nan nan nan nan nan nan nan nan nan nan nan nan nan nan nan nan nan nan nan nan nan nan nan nan nan nan nan nan nan nan nan nan nan nan nan nan nan nan nan nan nan nan nan nan nan nan nan nan nan nan nan
nan nan nan nan nan nan nan nan nan nan nan nan nan nan nan nan nan nan nan nan nan nan nan nan nan nan nan nan nan nan nan nan nan nan nan nan nan nan nan nan nan nan nan nan nan nan nan nan nan nan nan nan nan nan nan nan nan nan nan nan nan nan nan nan nan nan nan nan nan
nan nan nan nan nan nan nan nan nan nan nan nan nan nan nan nan nan nan nan nan nan nan nan nan nan nan nan nan nan nan nan nan nan nan nan nan nan nan nan nan nan nan nan nan nan nan nan nan nan nan nan nan nan nan nan nan nan nan nan nan nan nan nan nan nan nan nan nan nan
nan nan nan nan nan nan nan nan nan nan nan nan nan nan nan nan nan nan nan nan nan nan nan nan nan nan nan nan nan nan nan nan nan nan nan nan nan nan nan nan nan nan nan nan nan nan nan nan nan nan nan nan nan nan nan nan nan nan nan nan nan nan nan nan nan nan nan nan nan
nan nan nan nan nan nan nan nan nan nan nan nan nan nan nan nan nan nan nan nan nan nan nan nan nan nan nan nan nan nan nan nan nan nan nan nan nan nan nan nan nan nan nan nan nan nan nan nan nan nan nan nan nan nan nan nan nan nan nan nan nan nan nan nan nan nan nan nan nan
nan nan nan nan nan nan nan nan nan nan nan nan nan nan nan nan nan nan nan nan nan nan nan nan nan nan nan nan nan nan nan nan nan nan nan nan nan nan nan nan nan nan nan nan nan nan nan nan nan nan nan nan nan nan nan nan nan nan nan nan nan nan nan nan nan nan nan nan nan
nan nan nan nan nan nan nan nan nan nan nan nan nan nan nan nan nan nan nan nan nan nan nan nan nan nan nan nan nan nan nan nan nan nan nan nan nan nan nan nan nan nan nan nan nan nan nan nan nan nan nan nan nan nan nan nan nan nan nan nan nan nan nan nan nan nan nan nan nan
nan nan nan nan nan nan nan nan nan nan nan nan nan nan nan nan nan nan nan nan nan nan nan nan nan nan nan nan nan nan nan nan nan nan nan nan nan nan nan nan nan nan nan nan nan nan nan nan nan nan nan nan nan nan nan nan nan nan nan nan nan nan nan nan nan nan nan nan nan
nan nan nan nan nan nan nan nan nan nan nan nan nan nan nan nan nan nan nan nan nan nan nan nan nan nan nan nan nan nan nan nan nan nan nan nan nan nan nan nan nan nan nan nan nan nan nan nan nan nan nan nan nan nan nan nan nan nan nan nan nan nan nan nan nan nan nan nan nan
nan nan nan nan nan nan nan nan nan nan nan nan nan nan nan nan nan nan nan nan nan nan nan nan nan nan nan nan nan nan nan nan nan nan nan nan nan nan nan nan nan nan nan nan nan nan nan nan nan nan nan nan nan nan nan nan nan nan nan nan nan nan nan nan nan nan nan nan nan
nan nan nan nan nan nan nan nan nan nan nan nan nan nan nan nan nan nan nan nan nan nan nan nan nan nan nan nan nan nan nan nan nan nan nan nan nan nan nan nan nan nan nan nan nan nan nan nan nan nan nan nan nan nan nan nan nan nan nan nan nan nan nan nan nan nan nan nan 0
nan nan nan nan nan nan nan nan nan nan nan nan nan nan nan nan nan nan nan nan nan nan nan nan nan nan nan nan nan nan nan nan nan nan nan nan nan nan nan nan nan nan nan nan nan nan nan nan nan nan nan nan nan nan nan nan nan nan nan nan nan nan nan nan nan nan nan 0 3
nan nan nan nan nan nan nan nan nan nan nan nan nan nan nan nan nan nan nan nan nan nan nan nan nan nan nan nan nan nan nan nan nan nan nan nan nan nan nan nan nan nan nan nan nan nan nan nan nan nan nan nan nan nan nan nan nan nan nan nan nan nan nan nan nan nan 0 0 3
nan nan nan nan nan nan nan nan nan nan nan nan nan nan nan nan nan nan nan nan nan nan nan nan nan nan nan nan nan nan nan nan nan nan nan nan nan nan nan nan nan nan nan nan nan nan nan nan nan nan nan nan nan nan nan nan nan nan nan nan nan nan nan nan nan nan 0 0 1
nan nan nan nan nan nan nan nan nan nan nan nan nan nan nan nan nan nan nan nan nan nan nan nan nan nan nan nan nan nan nan nan nan nan nan nan nan nan nan nan nan nan nan nan nan nan nan nan nan nan nan nan nan nan nan nan nan nan nan nan nan nan nan 0 1 1 0 0 0
nan nan nan nan nan nan nan nan nan nan nan nan nan nan nan nan nan nan nan nan nan nan nan nan nan nan nan nan nan nan nan nan nan nan nan nan nan nan nan nan nan nan nan nan nan nan nan nan nan nan nan nan nan nan nan nan nan nan nan nan nan 0 0 0 1 1 1 1 1
nan nan nan nan nan nan nan nan nan nan nan nan nan nan nan nan nan nan nan nan nan nan nan nan nan nan nan nan nan nan nan nan nan nan nan nan nan nan nan nan nan nan nan nan nan nan nan nan nan nan nan nan nan nan nan nan nan 0 0 2 3 2 2 1 0 0 0 0 1
nan nan nan nan nan nan nan nan nan nan nan nan nan nan nan nan nan nan nan nan nan nan nan nan nan nan nan nan nan nan nan nan nan nan nan nan nan nan nan nan nan nan nan nan nan nan nan nan 0 0 1 0 1 0 0 0 1 3 3 5 4 4 4 3 0 0 nan 0 1
nan nan nan nan nan nan nan nan nan nan nan nan nan nan nan nan nan nan nan nan nan nan nan nan nan nan nan nan nan nan nan nan nan nan nan nan nan nan nan nan nan nan nan nan nan nan nan nan 1 1 4 5 6 7 7 3 2 3 3 3 3 3 3 1 0 0 nan nan 0
nan nan nan nan nan nan nan nan nan nan nan nan nan nan nan nan nan nan nan nan nan nan nan nan nan nan nan nan nan nan nan nan nan nan nan nan nan nan nan nan nan nan nan nan nan nan nan nan 2 2 8 14 7 3 3 3 1 0 0 1 1 1 1 1 1 1 1 0 nan
nan nan nan nan nan nan nan nan nan nan nan nan nan nan nan nan nan nan nan nan nan nan nan nan nan nan nan nan nan nan nan nan nan nan nan nan nan nan nan nan nan nan nan nan nan nan nan 0 3 3 10 18 13 5 5 3 2 0 0 1 0 0 0 1 2 2 2 1 1
nan nan nan nan nan nan nan nan nan nan nan nan nan nan nan nan nan nan nan nan nan nan nan nan nan nan nan nan nan nan nan nan nan nan nan nan nan nan nan nan nan nan nan nan nan nan nan 1 6 6 11 19 12 5 5 3 1 1 1 0 0 1 1 3 4 4 3 2 2
nan nan nan nan nan nan nan nan nan nan nan nan nan nan nan nan nan nan nan nan nan nan nan nan nan nan nan nan nan nan nan nan nan nan nan nan nan nan nan nan nan nan nan nan nan nan 0 3 7 7 12 19 13 6 6 2 0 1 1 1 3 4 4 3 3 3 2 3 4
nan nan nan nan nan nan nan nan nan nan nan nan nan nan nan nan nan nan nan nan nan nan nan nan nan nan nan nan nan nan nan nan nan nan nan nan nan nan nan nan nan nan nan nan nan nan 1 5 8 8 14 22 15 4 4 1 0 1 1 1 3 5 5 6 4 4 6 6 8
nan nan nan nan nan nan nan nan nan nan nan nan nan nan nan nan nan nan nan nan nan nan nan nan nan nan nan nan nan nan nan nan nan nan nan nan nan nan nan nan nan nan nan nan nan nan 2 5 9 9 17 25 16 4 4 0 1 1 1 2 3 4 4 7 10 10 11 9 8
nan nan nan nan nan nan nan nan nan nan nan nan nan nan nan nan nan nan nan nan nan nan nan nan nan nan nan nan nan nan nan nan nan nan nan nan nan nan nan nan nan nan nan nan 0 0 2 5 11 11 19 26 13 3 3 1 1 1 1 2 3 6 6 10 14 14 13 13 12
nan nan nan nan nan nan nan nan nan nan nan nan nan nan nan nan nan nan nan nan nan nan nan nan nan nan nan nan nan nan nan nan nan nan nan nan nan nan nan nan nan nan nan nan 0 0 2 6 13 13 25 23 9 5 5 3 2 1 1 2 4 5 5 11 13 13 14 18 18
nan nan nan nan nan nan nan nan nan nan nan nan nan nan nan nan nan nan nan nan nan nan nan nan nan nan nan nan nan nan nan nan nan nan nan nan nan nan nan nan nan nan nan nan 0 0 3 9 18 18 27 15 6 8 8 6 5 4 4 4 4 5 5 10 14 14 18 21 24
nan nan nan nan nan nan nan nan nan nan nan nan nan nan nan nan nan nan nan nan nan nan nan nan nan nan nan nan nan nan nan nan nan nan nan nan nan nan nan nan nan nan nan nan 1 1 5 12 23 23 30 10 8 9 9 8 6 7 7 8 5 8 8 13 12 12 18 24 29
nan nan nan nan nan nan nan nan nan nan nan nan nan nan nan nan nan nan nan nan nan nan nan nan nan nan nan nan nan nan nan nan nan nan nan nan nan nan nan nan nan nan nan nan 1 1 7 18 28 28 36 19 12 13 13 12 11 10 10 8 6 9 9 13 12 12 15 29 49
nan nan nan nan nan nan nan nan nan nan nan nan nan nan nan nan nan nan nan nan nan nan nan nan nan nan nan nan nan nan nan nan nan nan nan nan nan nan nan nan nan nan nan nan 3 3 11 23 35 35 42 23 14 13 13 13 16 10 10 9 7 8 8 11 11 11 14 36 85
nan nan nan nan nan nan nan nan nan nan nan nan nan nan nan nan nan nan nan nan nan nan nan nan nan nan nan nan nan nan nan nan nan nan nan nan nan nan nan nan nan nan nan nan 5 5 14 28 39 39 45 18 14 14 14 13 15 16 16 11 11 10 10 11 16 16 27 58 86